FW9915 Weather Reports


Display with metric or nautical units.
time (UTC)temp
F
wind
direction
speed
MPH
gust
MPH
rain 1hr
in
rain 24hr
in
rain mn
in
humidity
%
barometer
mb
20260904195519 68 0.0 0.0 0.00 0.08 0.08 99 1017.7
20260904194519 68 0.0 0.0 0.00 0.08 0.08 99 1017.7
20260904193519 68 0.0 0.0 0.00 0.08 0.08 99 1017.8
20260904192519 68 0.0 0.0 0.00 0.08 0.08 98 1017.9
20260904191531 68 0.0 0.0 0.00 0.08 0.08 98 1017.9
20260904190519 68 0.0 0.0 0.00 0.08 0.08 98 1017.9
20260904185519 68 0.0 0.0 0.00 0.08 0.08 98 1017.9
20260904184519 67 0.0 0.0 0.00 0.08 0.08 98 1017.9
20260904183519 67 0.0 0.0 0.00 0.08 0.08 97 1018.0
20260904182519 68 0.0 0.0 0.00 0.08 0.08 97 1018.0
20260904181519 68 0.0 0.0 0.00 0.08 0.08 97 1017.9
20260904180519 69 0.0 0.0 0.00 0.08 0.08 97 1017.7
20260904175531 68 0.0 0.0 0.00 0.08 0.08 96 1017.7
20260904174519 68 0.0 0.0 0.00 0.08 0.08 96 1017.7
20260904173519 69 0.0 0.0 0.00 0.08 0.08 95 1017.7
20260904172519 69 0.0 0.0 0.00 0.08 0.08 94 1017.6
20260904171543 70 0.0 0.0 0.00 0.08 0.08 93 1017.4
20260904170531 70 0.0 0.0 0.00 0.08 0.08 92 1017.5
20260904165539 71 0.0 0.0 0.00 0.08 0.08 90 1017.3
20260904164543 72 180 1.0 2.0 0.00 0.08 0.08 90 1017.1
20260904163519 72 180 1.0 4.0 0.00 0.08 0.08 89 1017.1
20260904162559 72 180 0.0 2.0 0.00 0.08 0.08 88 1017.1
20260904161539 72 180 1.0 2.0 0.00 0.08 0.08 87 1017.0
20260904160519 73 180 1.0 2.0 0.00 0.08 0.08 87 1017.0
20260904155539 73 180 1.0 2.0 0.00 0.08 0.08 86 1017.0
20260904154519 73 180 1.0 4.0 0.00 0.08 0.08 85 1017.0
20260904153539 74 180 1.0 2.0 0.00 0.08 0.08 85 1016.9
20260904152519 74 127 2.0 7.0 0.00 0.08 0.08 83 1016.8
20260904151519 76 158 3.0 9.0 0.00 0.08 0.08 80 1016.7
20260904150519 76 138 2.0 4.0 0.00 0.08 0.08 77 1016.7
20260904145519 77 184 3.0 9.0 0.00 0.08 0.08 77 1016.7
20260904144531 77 177 4.0 9.0 0.00 0.08 0.08 76 1016.7
20260904143543 77 180 2.0 4.0 0.00 0.08 0.08 75 1016.7
20260904142519 76 182 2.0 7.0 0.00 0.08 0.08 74 1016.7
20260904141519 76 143 3.0 9.0 0.00 0.08 0.08 74 1016.6
20260904140623 76 134 3.0 4.0 0.00 0.08 0.08 73 1016.6
20260904135519 77 117 3.0 7.0 0.00 0.08 0.08 68 1016.6
20260904134519 77 85 4.0 9.0 0.00 0.08 0.08 64 1016.6
20260904133519 77 70 6.0 11.0 0.00 0.08 0.08 65 1016.5
20260904132519 77 87 6.0 11.0 0.00 0.08 0.08 65 1016.5
20260904131539 77 63 7.0 15.0 0.00 0.08 0.08 66 1016.5
20260904130519 77 98 4.0 9.0 0.00 0.08 0.08 64 1016.4
20260904125519 76 74 6.0 9.0 0.00 0.08 0.08 60 1016.5
20260904124519 74 70 4.0 7.0 0.00 0.08 0.08 64 1016.5
20260904123531 73 65 2.0 7.0 0.02 0.08 0.08 69 1016.7
20260904122531 72 90 3.0 7.0 0.08 0.08 0.08 69 1016.7
20260904121540 72 95 5.0 15.0 0.08 0.08 0.08 77 1016.8
20260904120519 70 105 5.0 11.0 0.08 0.08 0.08 74 1017.1
20260904115519 69 96 7.0 11.0 0.08 0.08 0.08 79 1017.3
20260904114520 70 105 7.0 17.0 0.08 0.08 0.08 85 1017.2
20260904113519 74 140 2.0 4.0 0.06 0.06 0.06 83 1017.2
20260904112519 77 115 4.0 7.0 0.00 0.00 0.00 73 1017.0
20260904111531 77 128 5.0 9.0 0.00 0.00 0.00 73 1016.7
20260904110519 77 125 5.0 9.0 0.00 0.00 0.00 75 1016.8
20260904105519 77 122 6.0 11.0 0.00 0.00 0.00 73 1016.7
20260904104519 78 141 6.0 11.0 0.00 0.00 0.00 71 1016.7
20260904103519 78 114 7.0 11.0 0.00 0.00 0.00 68 1016.5
20260904102520 80 68 8.0 17.0 0.00 0.00 0.00 58 1016.6
20260904101611 81 62 7.0 15.0 0.00 0.00 0.00 52 1016.7
20260904100519 81 34 6.0 9.0 0.00 0.00 0.00 52 1016.7
20260904095539 81 27 7.0 22.0 0.00 0.00 0.00 54 1016.7
20260904094519 80 15 6.0 9.0 0.00 0.00 0.00 55 1016.8
20260904093539 80 2 4.0 7.0 0.00 0.00 0.00 57 1016.8
20260904092531 80 9 5.0 11.0 0.00 0.00 0.00 55 1016.9
20260904091519 80 16 6.0 9.0 0.00 0.00 0.00 57 1016.9
20260904090539 79 26 3.0 5.0 0.00 0.00 0.00 58 1017.0
20260904085519 79 17 5.0 9.0 0.00 0.00 0.00 59 1017.0
20260904084531 79 38 5.0 9.0 0.00 0.00 0.00 59 1017.0
20260904083519 79 322 4.0 7.0 0.00 0.00 0.00 59 1017.1
20260904082519 79 29 5.0 9.0 0.00 0.00 0.00 61 1017.1
20260904081543 78 13 5.0 7.0 0.00 0.00 0.00 63 1017.1
20260904080519 78 19 5.0 9.0 0.00 0.00 0.00 63 1017.2
20260904075519 78 347 4.0 7.0 0.00 0.00 0.00 64 1017.2
20260904074539 78 319 2.0 7.0 0.00 0.00 0.00 64 1017.2
20260904073603 79 324 2.0 7.0 0.00 0.00 0.00 64 1017.2
20260904072623 79 317 1.0 4.0 0.00 0.00 0.00 64 1017.2
20260904071539 78 315 1.0 2.0 0.00 0.00 0.00 66 1017.0
20260904070519 77 23 2.0 7.0 0.00 0.00 0.00 67 1017.0
20260904065519 76 26 2.0 4.0 0.00 0.00 0.00 69 1016.9
20260904064531 76 31 3.0 5.0 0.00 0.00 0.00 68 1016.9
20260904063519 76 10 3.0 4.0 0.00 0.00 0.00 68 1016.9
20260904062519 75 28 3.0 7.0 0.00 0.00 0.00 70 1016.8
20260904061539 74 26 3.0 7.0 0.00 0.00 0.00 71 1016.8
20260904060543 74 14 4.0 7.0 0.00 0.00 0.00 71 1016.8
20260904055520 73 27 4.0 7.0 0.00 0.00 0.00 72 1016.7
20260904054519 73 21 4.0 7.0 0.00 0.00 0.00 74 1016.6
20260904053520 72 28 5.0 7.0 0.00 0.00 0.00 75 1016.5
20260904052519 72 26 4.0 7.0 0.00 0.00 0.00 74 1016.5
20260904051539 71 14 4.0 7.0 0.00 0.00 0.00 76 1016.5
20260904050519 70 347 4.0 7.0 0.00 0.00 0.00 78 1016.5
20260904045539 69 349 4.0 7.0 0.00 0.00 0.00 79 1016.4
20260904044559 68 334 4.0 7.0 0.00 0.00 0.00 81 1016.4
20260904043519 67 319 3.0 7.0 0.00 0.00 0.00 82 1016.4
20260904042519 66 332 4.0 9.0 0.00 0.00 0.00 84 1016.4
20260904041519 65 328 4.0 7.0 0.00 0.00 0.00 85 1016.2
20260904040531 64 338 4.0 7.0 0.00 0.00 0.00 85 1016.1
20260904035519 64 342 5.0 7.0 0.00 0.00 0.00 85 1016.2
20260904034539 64 342 5.0 7.0 0.00 0.00 0.00 86 1016.1
20260904033519 64 348 4.0 4.0 0.00 0.00 0.00 86 1015.9
20260904032519 64 344 3.0 4.0 0.00 0.00 0.00 86 1015.8
20260904031519 65 339 4.0 7.0 0.00 0.00 0.00 84 1015.7
20260904030531 65 344 4.0 7.0 0.00 0.00 0.00 83 1015.6
20260904025531 65 338 3.0 7.0 0.00 0.00 0.00 82 1015.6
20260904024519 65 338 3.0 7.0 0.00 0.00 0.00 83 1015.5
20260904023531 65 338 2.0 4.0 0.00 0.00 0.00 84 1015.5
20260904022519 65 338 3.0 4.0 0.00 0.00 0.00 84 1015.5
20260904021519 65 338 3.0 7.0 0.00 0.00 0.00 84 1015.5
20260904020519 65 338 4.0 7.0 0.00 0.00 0.00 85 1015.6
20260904015519 65 341 4.0 7.0 0.00 0.00 0.00 85 1015.6
20260904014520 65 338 4.0 7.0 0.00 0.00 0.00 85 1015.6
20260904013520 65 339 3.0 4.0 0.00 0.00 0.00 85 1015.6
20260904012600 65 339 3.0 7.0 0.00 0.00 0.00 85 1015.6
20260904011539 65 350 2.0 4.0 0.00 0.00 0.00 84 1015.6
20260904010540 65 338 3.0 7.0 0.00 0.00 0.00 84 1015.5
20260904005519 65 339 3.0 7.0 0.00 0.00 0.00 85 1015.6
20260904004519 65 339 4.0 5.0 0.00 0.00 0.00 85 1015.7
20260904003539 65 346 4.0 7.0 0.00 0.00 0.00 86 1015.7
20260904002522 65 356 3.0 7.0 0.00 0.00 0.00 87 1015.7
20260904001552 65 359 3.0 7.0 0.00 0.00 0.00 88 1015.7
20260904000519 65 14 3.0 7.0 0.00 0.00 0.00 89 1015.8
20260903235519 65 17 2.0 4.0 0.00 0.00 0.00 89 1015.9
20260903234520 65 11 3.0 7.0 0.00 0.00 0.00 91 1015.9
20260903233519 65 19 2.0 4.0 0.00 0.00 0.00 92 1015.8
20260903232600 65 23 2.0 4.0 0.00 0.00 0.00 92 1015.9
20260903231519 65 13 2.0 4.0 0.00 0.00 0.00 93 1015.8
20260903230519 65 11 3.0 4.0 0.00 0.00 0.00 95 1015.9
20260903225551 65 17 2.0 4.0 0.00 0.00 0.00 97 1016.0
20260903224519 65 13 2.0 4.0 0.00 0.00 0.00 98 1016.1
20260903223519 65 23 1.0 4.0 0.00 0.00 0.00 99 1016.1
20260903222520 65 23 2.0 4.0 0.00 0.00 0.00 99 1016.1
20260903221539 65 23 1.0 4.0 0.00 0.00 0.00 99 1016.2
20260903220519 65 87 1.0 2.0 0.00 0.00 0.00 99 1016.3
20260903215531 65 113 0.0 2.0 0.00 0.00 0.00 99 1016.3
20260903214519 65 0.0 0.0 0.00 0.00 0.00 99 1016.3
20260903213519 65 0.0 0.0 0.00 0.00 0.00 99 1016.4
20260903212521 65 0.0 0.0 0.00 0.00 0.00 99 1016.3
20260903211519 65 0.0 0.0 0.00 0.00 0.00 99 1016.2
20260903210520 65 113 0.0 1.0 0.00 0.00 0.00 99 1016.3
20260903205519 66 113 0.0 1.0 0.00 0.00 0.00 99 1016.3
20260903204519 66 0.0 0.0 0.00 0.00 0.00 99 1016.3
20260903203519 66 113 0.0 2.0 0.00 0.00 0.00 99 1016.3
20260903202539 66 113 1.0 2.0 0.00 0.00 0.00 99 1016.3
20260903201539 66 135 0.0 2.0 0.00 0.00 0.00 99 1016.3
20260903200519 66 0.0 0.0 0.00 0.00 0.00 98 1016.4